Theta_e
299 299 300 300 300 300 300 300 300 300 300 300 308 311 311 310 308 307 308 306 307 307 307 308 308 308 306 307 311 315 313 313 313 313 315 310 309 309 308 310 310 308 306 305 304
299 299 299 299 300 300 299 300 300 300 300 300 299 308 310 308 303 305 303 303 304 304 304 305 306 307 308 308 308 311 312 312 310 309 309 307 307 307 307 308 305 303 302 301 301
299 299 299 299 299 299 300 300 300 300 300 300 299 300 306 309 304 299 300 302 304 304 304 304 304 305 309 309 307 309 312 309 307 306 305 306 306 305 305 307 299 299 299 300 301
298 299 299 299 299 300 300 300 300 300 300 300 299 299 304 308 305 298 299 300 301 302 303 305 306 306 309 310 308 309 307 306 305 302 300 302 303 305 299 298 297 297 298 299 299
297 298 297 298 299 300 300 300 300 300 300 299 299 299 305 300 295 296 296 298 299 301 302 305 305 306 308 308 307 307 306 305 303 300 297 299 302 304 299 298 297 297 298 298 298
297 297 297 298 298 299 299 299 299 299 298 298 300 303 300 300 294 294 295 295 297 301 302 304 305 305 306 306 306 304 304 303 301 298 297 297 301 303 298 298 298 297 297 297 297
296 296 297 298 299 298 299 299 298 299 300 302 300 298 297 293 293 294 296 296 297 300 300 300 301 304 304 304 300 302 304 303 298 296 296 295 301 299 298 298 298 298 297 296 296
297 296 297 300 299 299 298 298 301 300 299 297 297 296 293 292 293 296 297 297 299 299 299 299 298 297 298 297 299 302 303 305 296 295 295 296 300 298 297 298 298 297 297 296 296
297 296 298 299 298 300 298 298 298 298 298 297 297 297 293 292 293 296 297 297 297 298 299 297 295 296 297 303 302 300 303 299 298 294 296 298 298 297 297 297 297 297 296 295 295
296 296 298 299 299 299 298 298 298 297 296 296 295 297 292 291 292 295 296 296 295 294 296 296 298 300 297 300 303 299 299 297 296 295 295 297 298 298 296 297 296 296 295 295 294
295 295 296 299 299 298 295 296 298 297 294 291 291 291 290 290 291 292 295 294 295 295 298 294 298 296 293 293 293 294 295 296 295 293 294 295 296 298 296 296 296 295 295 294 294
295 295 295 298 299 296 298 297 297 294 292 290 290 290 289 290 293 291 293 295 296 296 296 297 294 291 292 293 293 294 296 296 295 293 294 296 296 298 297 296 295 295 294 294 293
294 295 295 296 299 297 298 296 294 294 297 291 290 290 290 290 290 290 291 292 295 295 296 297 291 290 291 293 294 293 293 293 293 294 295 296 299 297 298 297 296 295 294 293 292
294 294 294 295 298 299 298 294 294 294 307 294 293 290 290 290 290 289 289 291 292 293 293 292 290 290 292 292 292 295 291 291 293 296 300 296 301 298 299 298 297 295 293 292 291
293 294 294 295 296 299 297 293 294 296 308 293 292 289 290 292 290 290 289 292 293 291 293 292 291 291 292 290 290 293 291 292 294 296 296 298 298 300 298 297 297 294 293 292 291
293 293 293 294 296 297 294 295 297 309 307 292 291 292 292 291 290 290 290 289 290 292 292 290 289 290 290 290 290 290 293 293 295 296 302 297 295 301 300 299 296 294 293 291 291
293 293 293 292 296 294 294 298 307 306 291 294 293 292 292 291 291 291 292 292 296 298 296 291 291 289 289 292 291 293 295 304 304 304 305 296 294 300 299 296 295 293 292 291 290
293 292 292 292 295 293 297 302 303 297 295 290 291 291 294 290 290 291 292 294 290 292 295 298 299 290 289 290 291 291 293 301 302 301 299 294 295 300 297 295 293 292 291 291 290
293 292 291 292 295 294 297 303 310 297 292 292 290 294 293 290 291 291 292 294 291 289 299 296 293 288 288 289 290 292 295 290 295 290 292 298 298 297 296 294 293 292 291 291 290
292 291 291 292 295 296 299 305 293 290 290 292 298 293 299 292 292 292 292 291 290 289 287 290 297 288 289 288 288 290 291 294 293 299 300 299 297 299 296 295 295 293 291 291 290
291 294 290 292 295 292 305 299 289 289 290 291 293 291 294 293 293 294 295 289 289 288 288 289 291 290 288 289 291 288 290 290 291 292 298 298 299 301 298 297 296 293 291 290 290
290 299 289 291 296 291 296 289 289 289 289 290 291 291 293 291 292 292 294 291 288 288 289 289 291 295 293 288 287 289 291 292 294 294 292 292 294 295 293 294 293 292 290 289 289
292 292 289 289 302 297 287 289 289 289 289 289 290 290 290 290 293 290 290 288 288 288 289 289 292 298 293 288 287 287 288 289 289 288 291 294 297 292 291 292 291 291 290 290 289
291 300 289 288 287 294 292 291 290 288 289 289 289 289 289 290 288 289 289 288 287 288 287 288 289 292 300 293 290 288 288 288 289 291 292 292 294 295 294 293 293 292 291 290 289
291 293 289 300 292 291 291 290 290 289 287 288 288 289 290 288 289 289 289 288 287 288 289 289 289 287 288 289 289 288 289 289 289 289 292 294 294 295 295 293 291 291 290 289 288
293 292 286 284 285 290 290 290 291 289 288 289 289 290 289 290 292 291 290 289 289 288 289 287 290 282 285 288 288 288 288 288 289 289 289 290 290 291 291 291 290 290 289 289 288
290 289 291 287 289 292 296 292 291 290 288 288 289 290 289 289 288 287 289 288 289 288 289 286 288 286 292 285 286 289 287 288 288 288 289 290 291 293 292 291 290 290 289 288 287
Wind_Speed
6 6 7 8 8 9 10 10 10 9 9 9 9 7 4 4 4 4 2 3 2 1 2 4 3 2 4 2 2 2 5 8 9 4 5 9 8 8 12 10 10 16 20 23 26
9 10 11 11 11 10 9 10 11 11 10 10 12 13 10 5 6 3 2 2 2 2 1 3 1 3 3 4 3 5 4 4 9 10 6 7 8 11 10 11 13 24 25 28 27
6 7 8 8 10 11 12 11 10 10 9 10 12 14 13 7 1 3 2 3 5 5 2 2 2 0 3 5 4 3 4 6 9 11 7 7 7 10 11 2 18 22 26 26 25
8 7 7 7 7 8 8 10 10 9 8 10 11 12 11 8 3 6 6 4 4 4 2 3 3 4 6 7 5 6 4 6 7 11 8 6 7 5 17 13 15 15 18 20 22
11 10 9 8 8 9 5 5 5 6 6 8 11 13 13 2 4 13 9 4 0 2 1 1 4 4 7 4 4 5 5 2 7 11 13 8 6 3 18 16 12 14 17 19 21
10 10 7 7 8 8 6 2 1 3 6 12 14 15 6 3 11 12 8 5 1 5 4 2 1 1 4 3 3 3 2 4 5 12 9 13 10 5 18 15 14 15 18 20 22
10 8 6 7 6 9 11 10 11 15 17 17 14 10 9 3 10 9 7 5 4 5 4 6 1 2 3 6 2 3 6 5 11 13 4 12 6 10 13 12 13 14 17 20 22
10 8 6 7 9 13 14 14 13 15 18 16 8 5 7 9 9 5 9 9 9 6 7 8 7 6 5 2 3 3 3 7 10 13 6 9 7 10 11 13 15 16 17 18 21
10 6 4 5 9 11 13 13 12 12 10 6 4 5 4 7 9 9 9 10 9 7 6 4 7 7 2 5 5 2 0 2 3 9 9 6 6 7 9 11 13 15 17 19 20
9 6 2 5 8 9 10 11 9 9 9 7 5 3 6 5 10 7 6 5 3 3 3 7 5 7 12 2 1 2 2 2 3 8 11 5 4 3 6 9 12 15 17 19 22
10 7 0 5 8 11 9 9 3 3 14 9 7 7 5 5 14 9 5 6 4 8 3 8 10 9 10 9 7 4 1 3 2 3 7 1 4 6 1 6 11 14 17 19 21
11 9 2 8 10 11 3 3 5 12 13 10 9 11 10 7 2 14 8 3 5 4 3 6 8 5 4 5 2 2 2 4 3 2 5 3 8 9 9 2 5 10 15 19 22
11 10 5 2 11 12 6 2 18 14 3 4 7 5 5 10 8 13 9 5 11 14 7 6 5 1 2 8 1 5 7 5 3 8 5 9 8 13 12 10 4 7 11 15 20
7 10 7 1 5 10 7 12 12 4 2 2 1 5 5 3 5 10 7 3 4 5 6 8 3 1 2 5 6 2 7 6 5 5 2 4 1 11 11 8 5 6 11 15 18
7 7 7 2 3 9 8 16 5 1 3 4 2 2 6 3 2 11 9 8 5 4 3 4 3 4 2 2 5 4 8 3 3 4 4 5 4 8 7 8 5 4 8 12 14
7 5 6 2 3 6 15 10 3 2 6 3 0 0 3 5 3 3 4 7 4 5 11 5 1 2 4 6 3 8 2 3 2 2 3 6 3 8 8 5 5 3 7 11 13
7 5 5 2 3 13 15 4 2 4 2 2 2 2 4 3 3 3 3 3 0 4 4 3 2 1 4 3 3 5 2 1 2 2 2 5 5 7 6 7 5 4 7 9 10
6 3 3 0 8 17 9 1 4 2 3 1 3 5 2 1 2 1 3 3 4 1 2 4 4 2 3 4 3 4 3 3 4 3 4 5 6 3 5 9 8 7 7 8 9
4 2 2 3 12 14 2 2 2 1 5 9 5 4 2 2 1 2 0 2 2 2 2 3 2 3 3 2 3 2 1 2 1 2 2 4 5 7 9 10 12 10 9 8 9
2 4 5 6 12 10 2 2 2 1 3 3 4 2 6 5 5 4 5 4 4 1 1 2 2 2 4 1 2 3 4 2 3 3 5 5 5 10 11 13 12 13 11 9 11
6 2 3 8 11 1 2 2 2 4 1 2 3 3 2 4 4 4 4 3 3 5 2 2 1 4 0 7 5 4 3 2 2 2 3 5 4 3 3 7 9 10 8 8 14
4 1 0 12 2 2 1 4 3 7 2 1 1 2 4 6 4 5 6 0 9 8 3 3 0 3 2 4 2 3 4 6 3 4 4 3 9 1 1 3 4 9 11 14 18
4 2 2 10 3 3 2 2 2 4 4 4 3 1 2 5 2 4 5 5 11 7 5 6 2 2 3 2 2 5 9 9 2 2 10 4 6 4 5 5 8 12 16 20 20
2 1 1 4 2 3 5 4 4 3 3 3 3 3 4 3 2 5 6 5 11 7 3 4 2 6 6 3 2 4 9 15 10 5 7 15 21 16 16 12 14 17 21 22 20
0 1 2 2 1 4 2 8 6 6 3 7 3 7 5 4 3 4 5 6 8 9 8 3 4 3 11 12 12 10 8 15 21 21 10 17 18 19 15 17 27 27 22 18 18
0 2 4 2 1 2 2 7 9 5 8 5 5 9 8 4 3 7 9 7 5 11 7 4 1 1 5 10 10 15 16 21 24 23 24 30 31 29 34 25 13 15 16 15 17
2 2 2 3 3 2 2 4 8 9 7 1 8 5 9 9 4 3 7 1 5 10 13 7 4 1 4 1 10 11 21 20 15 11 18 20 23 17 16 18 16 17 15 15 17
Wind_Direction
316 306 297 286 281 281 281 276 267 253 245 222 218 208 188 146 118 213 341 322 274 78 64 59 64 115 134 172 180 211 245 261 291 322 99 40 356 359 326 296 340 354 1 346 345
326 324 318 311 306 292 279 268 261 253 242 227 212 204 198 149 95 66 37 3 340 359 124 109 64 138 167 165 169 214 246 292 39 37 18 347 352 351 330 341 359 341 338 342 346
322 315 304 297 294 292 289 279 265 255 241 233 214 209 206 202 182 348 355 276 263 266 262 185 148 207 190 172 170 191 255 42 56 27 5 14 3 337 343 19 358 338 336 342 348
345 337 324 314 299 287 284 277 271 260 237 220 210 202 191 183 251 320 315 288 238 243 262 284 237 214 208 192 189 205 90 40 29 25 31 25 334 18 60 1 338 347 344 349 353
357 353 349 339 341 341 325 289 258 250 220 198 180 171 158 137 353 327 329 333 100 146 110 253 224 226 212 175 182 239 100 54 52 22 29 351 348 114 25 0 354 357 0 3 1
5 2 5 1 17 37 50 40 142 164 141 141 145 151 141 142 324 342 355 356 99 89 70 88 172 175 131 149 253 109 131 73 35 10 38 1 37 153 8 9 18 15 15 14 11
7 7 7 9 62 80 78 76 107 118 126 128 131 139 117 104 8 22 49 61 101 123 105 99 63 179 157 143 92 159 188 181 38 16 24 341 91 33 7 17 29 33 22 18 14
3 6 29 42 86 91 90 87 104 122 131 133 127 85 79 36 25 81 79 74 101 129 139 125 99 99 68 121 129 174 208 208 66 17 351 336 104 41 24 28 33 31 28 21 14
5 13 68 92 112 105 106 106 104 116 136 143 108 111 78 29 30 77 80 92 85 97 96 89 86 80 152 205 174 155 258 18 101 46 353 346 105 51 28 28 26 25 23 19 13
9 14 116 136 127 123 114 115 113 125 132 108 87 98 40 4 37 58 74 87 71 48 19 30 62 82 37 297 141 29 359 2 330 13 359 48 116 45 32 25 19 13 11 11 8
9 359 234 171 163 146 127 118 95 62 69 67 37 81 67 60 50 29 72 70 43 50 79 30 75 61 38 35 46 57 330 336 73 82 329 140 254 220 293 5 8 2 358 357 357
1 3 332 199 188 174 162 242 199 143 94 57 69 68 53 49 38 25 74 68 42 95 112 94 72 44 34 31 78 29 301 33 196 177 302 222 269 211 213 249 353 352 350 349 347
359 358 343 285 199 204 230 307 140 127 92 45 52 45 24 41 39 3 41 57 58 68 72 73 85 28 8 44 84 52 23 347 306 310 236 285 232 195 208 222 262 344 348 349 349
356 356 348 151 194 210 213 172 152 122 118 68 49 22 355 82 61 23 38 72 56 96 65 74 88 106 119 74 340 182 3 308 279 298 316 345 338 195 198 213 218 336 354 349 348
344 352 348 302 230 183 199 175 172 100 256 66 65 65 40 74 86 18 31 55 77 93 248 91 74 32 57 20 340 36 328 279 261 281 305 171 257 115 168 229 216 315 340 347 348
334 334 350 332 247 219 167 161 137 54 245 121 46 294 151 48 51 10 63 72 111 80 68 88 85 348 350 302 254 300 311 195 236 296 257 117 348 186 186 196 194 264 325 339 344
326 301 338 309 217 160 155 134 77 221 35 155 138 129 105 61 81 26 69 61 31 150 179 160 141 94 354 305 198 323 290 206 218 229 294 135 286 282 168 179 202 256 308 326 334
319 273 327 141 153 158 149 112 230 64 197 140 135 110 144 6 69 87 149 131 68 256 154 203 209 180 19 36 344 10 353 347 281 271 340 154 236 242 169 184 204 238 275 302 314
309 202 345 144 155 161 173 200 314 69 129 163 143 178 146 152 236 179 136 138 85 6 253 167 169 125 55 45 322 47 178 49 300 101 287 233 235 229 188 204 219 237 253 284 295
170 161 16 157 157 150 86 262 200 56 123 176 222 255 178 169 188 207 177 145 143 67 6 114 207 220 116 202 102 304 125 200 166 272 272 221 268 258 202 216 217 221 237 271 295
144 191 360 155 152 158 225 139 170 189 170 233 203 139 173 167 198 181 163 152 185 141 99 143 267 120 300 199 182 159 195 202 318 253 275 297 258 41 238 210 214 229 241 277 303
163 204 318 154 75 18 152 141 170 159 174 164 130 110 179 157 161 212 208 245 167 159 166 158 277 225 206 115 319 319 237 203 238 180 246 300 272 55 235 242 233 263 263 285 307
158 148 43 175 200 160 126 133 180 171 196 176 171 191 177 171 192 192 180 143 170 169 167 174 193 243 198 197 209 229 213 216 224 287 229 230 257 137 153 214 257 270 278 286 302
190 156 105 195 136 148 157 168 169 188 179 160 145 119 154 160 171 180 184 164 183 189 147 163 240 254 269 41 76 206 208 207 196 215 246 227 270 269 281 280 284 293 299 299 296
182 155 181 173 196 145 167 159 157 185 225 192 188 222 177 140 160 210 173 152 183 193 182 201 248 223 274 273 256 244 229 209 214 221 243 270 275 280 289 306 301 297 294 294 296
281 161 105 95 85 183 190 203 184 167 163 217 228 190 184 176 201 186 167 183 187 179 195 159 243 67 266 267 269 262 250 237 236 241 253 261 274 269 279 284 297 295 293 293 299
27 117 136 157 172 219 209 190 199 157 201 253 200 163 209 231 201 75 173 167 165 172 186 170 208 185 270 99 310 274 236 223 215 219 228 246 252 284 284 287 295 289 291 290 302